FW9022 Weather Reports


Display with metric or nautical units.
time (UTC)temp
F
wind
direction
speed
MPH
gust
MPH
rain 1hr
in
rain 24hr
in
rain mn
in
humidity
%
barometer
mb
20260901230845 85 22 0.0 2.0 0.00 0.00 0.00 63 1021.2
20260901225829 85 22 0.0 3.0 0.00 0.00 0.00 62 1021.0
20260901224822 85 22 0.0 3.0 0.00 0.00 0.00 62 1021.0
20260901223835 85 36 1.0 3.0 0.00 0.00 0.00 63 1021.0
20260901222829 85 347 0.0 2.0 0.00 0.00 0.00 63 1020.6
20260901221826 86 348 0.0 1.0 0.00 0.00 0.00 63 1020.6
20260901220832 86 346 0.0 1.0 0.00 0.00 0.00 62 1020.7
20260901215831 87 347 0.0 3.0 0.00 0.00 0.00 60 1020.6
20260901214830 88 346 0.0 3.0 0.00 0.00 0.00 59 1020.6
20260901213823 88 346 0.0 1.0 0.00 0.00 0.00 57 1020.8
20260901212836 88 346 0.0 2.0 0.00 0.00 0.00 56 1020.7
20260901211830 88 346 0.0 3.0 0.00 0.00 0.00 56 1020.7
20260901210838 88 355 1.0 4.0 0.00 0.00 0.00 56 1020.8
20260901205837 88 17 1.0 5.0 0.00 0.00 0.00 55 1020.8
20260901204832 88 22 1.0 4.0 0.00 0.00 0.00 56 1020.8
20260901203829 88 11 0.0 5.0 0.00 0.00 0.00 55 1020.9
20260901202824 88 22 1.0 5.0 0.00 0.00 0.00 58 1020.9
20260901201837 88 344 2.0 5.0 0.00 0.00 0.00 56 1020.9
20260901200842 88 5 1.0 3.0 0.00 0.00 0.00 56 1020.9
20260901195826 88 293 2.0 3.0 0.00 0.00 0.00 55 1020.9
20260901194819 89 293 1.0 2.0 0.00 0.00 0.00 56 1020.9
20260901193833 89 292 0.0 3.0 0.00 0.00 0.00 56 1021.0
20260901192831 88 306 0.0 4.0 0.00 0.00 0.00 54 1021.2
20260901191824 88 17 1.0 4.0 0.00 0.00 0.00 55 1021.2
20260901190849 88 36 0.0 3.0 0.00 0.00 0.00 58 1021.4
20260901185829 88 36 3.0 4.0 0.00 0.00 0.00 54 1021.4
20260901184827 88 15 2.0 4.0 0.00 0.00 0.00 56 1021.4
20260901183821 88 61 0.0 4.0 0.00 0.00 0.00 57 1021.5
20260901182834 88 52 2.0 6.0 0.00 0.00 0.00 57 1021.7
20260901181832 88 348 1.0 3.0 0.00 0.00 0.00 58 1021.7
20260901180836 88 44 3.0 4.0 0.00 0.00 0.00 57 1021.7
20260901175836 87 17 1.0 4.0 0.00 0.00 0.00 59 1021.6
20260901174830 87 360 2.0 3.0 0.00 0.00 0.00 60 1021.6
20260901173846 87 24 1.0 4.0 0.00 0.00 0.00 62 1021.7
20260901172819 87 22 2.0 4.0 0.00 0.00 0.00 63 1021.9
20260901171832 87 105 1.0 3.0 0.00 0.00 0.00 63 1021.9
20260901170840 86 313 1.0 3.0 0.00 0.00 0.00 64 1022.2
20260901165820 85 13 3.0 4.0 0.00 0.00 0.00 66 1022.4
20260901164835 85 13 1.0 3.0 0.00 0.00 0.00 69 1022.4
20260901163827 85 13 3.0 4.0 0.00 0.00 0.00 67 1022.5
20260901162825 85 336 1.0 3.0 0.00 0.00 0.00 69 1022.7
20260901161818 85 32 1.0 3.0 0.00 0.00 0.00 69 1022.7
20260901160843 85 34 1.0 3.0 0.00 0.00 0.00 68 1022.9
20260901155826 85 149 0.0 3.0 0.00 0.00 0.00 71 1022.9
20260901154819 84 149 1.0 2.0 0.00 0.00 0.00 70 1022.9
20260901153852 84 146 1.0 4.0 0.00 0.00 0.00 72 1023.0
20260901152825 83 142 1.0 3.0 0.00 0.00 0.00 73 1023.1
20260901151833 83 13 0.0 2.0 0.00 0.00 0.00 75 1023.1
20260901150842 82 13 0.0 2.0 0.00 0.00 0.00 76 1023.1
20260901145821 82 330 1.0 2.0 0.00 0.00 0.00 76 1023.1
20260901144836 81 311 0.0 0.0 0.00 0.00 0.00 76 1023.1
20260901143833 81 311 0.0 0.0 0.00 0.00 0.00 77 1023.1
20260901142828 81 311 0.0 0.0 0.00 0.00 0.00 78 1023.2
20260901141822 79 312 0.0 0.0 0.00 0.00 0.00 80 1023.2
20260901140847 79 312 0.0 0.0 0.00 0.00 0.00 81 1023.3
20260901135830 77 312 0.0 1.0 0.00 0.00 0.00 84 1023.3
20260901134824 77 312 0.0 0.0 0.00 0.00 0.00 84 1023.3
20260901133819 76 312 0.0 1.0 0.00 0.00 0.00 86 1023.4
20260901132837 75 312 0.0 1.0 0.00 0.00 0.00 90 1023.8
20260901131830 73 312 0.0 0.0 0.00 0.00 0.00 93 1023.8
20260901130834 71 312 0.0 0.0 0.00 0.00 0.00 98 1023.8
20260901125833 69 311 0.0 0.0 0.00 0.00 0.00 99 1023.1
20260901124832 68 311 0.0 0.0 0.00 0.00 0.00 99 1023.1
20260901123825 67 230 0.0 0.0 0.00 0.00 0.00 99 1023.1
20260901122818 66 136 0.0 0.0 0.00 0.00 0.00 99 1023.2
20260901121836 65 136 0.0 0.0 0.00 0.00 0.00 98 1023.2
20260901120840 65 136 0.0 0.0 0.00 0.00 0.00 98 1022.9
20260901115819 65 136 0.0 0.0 0.00 0.00 0.00 98 1022.6
20260901114833 64 136 0.0 0.0 0.00 0.00 0.00 98 1022.6
20260901113832 64 136 0.0 0.0 0.00 0.00 0.00 98 1022.5
20260901112825 64 136 0.0 0.0 0.00 0.00 0.00 98 1022.4
20260901111819 64 136 0.0 0.0 0.00 0.00 0.00 98 1022.4
20260901110903 64 136 0.0 0.0 0.00 0.00 0.00 98 1022.7
20260901105825 64 136 0.0 0.0 0.00 0.00 0.00 98 1022.6
20260901104818 64 136 0.0 0.0 0.00 0.00 0.00 97 1022.6
20260901103831 65 136 0.0 0.0 0.00 0.00 0.00 98 1022.6
20260901102829 65 136 0.0 0.0 0.00 0.00 0.00 98 1022.6
20260901101823 65 136 0.0 0.0 0.00 0.00 0.00 98 1022.6
20260901100847 65 136 0.0 0.0 0.00 0.00 0.00 98 1022.2
20260901095826 65 136 0.0 0.0 0.00 0.00 0.00 97 1022.0
20260901094845 65 136 0.0 0.0 0.00 0.00 0.00 98 1022.0
20260901093858 65 136 0.0 0.0 0.00 0.00 0.00 98 1022.0
20260901092830 65 136 0.0 0.0 0.00 0.00 0.00 98 1022.1
20260901091825 65 136 0.0 0.0 0.00 0.00 0.00 97 1022.1
20260901090913 65 136 0.0 0.0 0.00 0.00 0.00 97 1022.0
20260901085831 66 136 0.0 0.0 0.00 0.00 0.00 97 1022.3
20260901084845 66 136 0.0 0.0 0.00 0.00 0.00 97 1022.3
20260901083838 66 136 0.0 0.0 0.00 0.00 0.00 97 1022.3
20260901082835 66 136 0.0 0.0 0.00 0.00 0.00 97 1022.3
20260901081855 66 136 0.0 0.0 0.00 0.00 0.00 97 1022.3
20260901080858 66 136 0.0 0.0 0.00 0.00 0.00 97 1022.3
20260901075817 66 136 0.0 0.0 0.00 0.00 0.00 97 1022.3
20260901074854 66 136 0.0 0.0 0.00 0.00 0.00 97 1022.3
20260901073828 66 136 0.0 0.0 0.00 0.00 0.00 97 1022.2
20260901072822 67 136 0.0 0.0 0.00 0.00 0.00 97 1022.3
20260901071836 67 136 0.0 1.0 0.00 0.00 0.00 97 1022.3
20260901070844 67 136 0.0 0.0 0.00 0.00 0.00 97 1022.2
20260901065823 67 136 0.0 0.0 0.00 0.00 0.00 97 1022.2
20260901064817 67 136 0.0 0.0 0.00 0.00 0.00 97 1022.2
20260901063835 67 136 0.0 0.0 0.00 0.00 0.00 97 1022.1
20260901062830 67 136 0.0 0.0 0.00 0.00 0.00 97 1022.3
20260901061844 67 136 0.0 0.0 0.00 0.00 0.00 97 1022.3
20260901060907 67 136 0.0 0.0 0.00 0.00 0.00 97 1022.5
20260901055846 68 136 0.0 0.0 0.00 0.00 0.00 97 1022.6
20260901054822 68 136 0.0 0.0 0.00 0.00 0.00 97 1022.6
20260901053835 68 136 0.0 0.0 0.00 0.00 0.00 97 1022.6
20260901052830 68 136 0.0 0.0 0.00 0.00 0.00 97 1022.5
20260901051848 68 136 0.0 0.0 0.00 0.00 0.00 97 1022.5
20260901050849 69 136 0.0 0.0 0.00 0.00 0.00 96 1022.8
20260901045828 69 136 0.0 0.0 0.00 0.00 0.00 96 1022.7
20260901044822 69 136 0.0 0.0 0.00 0.00 0.00 96 1022.7
20260901043839 69 136 0.0 0.0 0.00 0.00 0.00 96 1022.6
20260901042832 69 136 0.0 0.0 0.00 0.00 0.00 96 1022.5
20260901041826 69 136 0.0 0.0 0.00 0.00 0.00 96 1022.5
20260901040850 70 136 0.0 0.0 0.00 0.00 0.00 96 1022.4
20260901035834 70 136 0.0 0.0 0.00 0.00 0.00 96 1022.3
20260901034827 70 136 0.0 0.0 0.00 0.00 0.00 96 1022.3
20260901033822 70 136 0.0 0.0 0.00 0.00 0.00 96 1022.2
20260901032819 70 136 0.0 0.0 0.00 0.00 0.00 96 1022.1
20260901031854 70 136 0.0 0.0 0.00 0.00 0.00 96 1022.1
20260901030834 71 136 0.0 0.0 0.00 0.00 0.00 95 1022.1
20260901025833 71 136 0.0 0.0 0.00 0.00 0.00 95 1022.2
20260901024831 71 136 0.0 0.0 0.00 0.00 0.00 95 1022.2
20260901023825 71 136 0.0 0.0 0.00 0.00 0.00 94 1022.2
20260901022819 72 136 0.0 0.0 0.00 0.00 0.00 94 1022.4
20260901021833 72 136 0.0 0.0 0.00 0.00 0.00 94 1022.4
20260901020902 72 136 0.0 0.0 0.00 0.00 0.00 94 1022.3
20260901015820 73 136 0.0 0.0 0.00 0.00 0.00 93 1022.4
20260901014834 73 136 0.0 0.0 0.00 0.00 0.00 93 1022.4
20260901013829 73 136 0.0 0.0 0.00 0.00 0.00 93 1022.3
20260901012828 74 136 0.0 0.0 0.00 0.00 0.00 92 1022.1
20260901011822 74 136 0.0 0.0 0.00 0.00 0.00 91 1022.1
20260901010847 75 136 0.0 0.0 0.00 0.00 0.00 92 1021.3
20260901005851 75 136 0.0 0.0 0.00 0.00 0.00 90 1021.9
20260901004823 76 136 0.0 0.0 0.00 0.00 0.00 90 1021.9
20260901003818 76 136 0.0 0.0 0.00 0.00 0.00 88 1021.9
20260901002833 77 136 0.0 0.0 0.00 0.00 0.00 86 1021.7
20260901001830 78 136 0.0 0.0 0.00 0.00 0.00 86 1021.7
20260901000833 78 136 0.0 0.0 0.00 0.00 0.00 85 1022.0
20260831235834 79 136 0.0 0.0 0.00 0.00 0.00 84 1021.9
20260831234832 80 136 0.0 0.0 0.00 0.00 0.00 83 1021.9
20260831233827 81 136 0.0 0.0 0.00 0.00 0.00 79 1021.7
20260831232841 81 136 0.0 0.0 0.00 0.00 0.00 79 1021.8
20260831231854 81 136 0.0 0.0 0.00 0.00 0.00 78 1021.8